When you browse on this site, cookies collect data to enhance your experience and personalize the content and advertising you see.
Visit our Privacy Policy to learn more. By continuing to use the site, you agree to this use of cookies and data.
  • In Belgium
  • List of Countries
  • For 7 days
  • Water Temperature
  • Satellite Maps
  • Weather Map
  • Weather Widgets
  • user-avatar
    Login

    Hourly Weather Etchmiadzin

    Today, 21 January, Monday

    Time Temperature Precipitation Wind Pressure Humidity
    00:00 -1°C° 0 mm 1 mps 691 mmHg 38%
    01:00 -1°C° 0 mm 1 mps 691 mmHg 39%
    02:00 -1°C° 0 mm 1 mps 691 mmHg 39%
    03:00 -1°C° 0 mm 1 mps 691 mmHg 40%
    04:00 -2°C° 0 mm 1 mps 691 mmHg 40%
    05:00 -2°C° 0 mm 1 mps 691 mmHg 41%
    06:00 -2°C° 0 mm 1 mps 691 mmHg 42%
    07:00 -1°C° 0 mm 1 mps 691 mmHg 40%
    08:00 0°C° 0 mm 1 mps 691 mmHg 39%
    09:00 0°C° 0 mm 1 mps 691 mmHg 38%
    10:00 +2°C° 0 mm 1 mps 690 mmHg 36%
    11:00 +3°C° 0 mm 1 mps 690 mmHg 34%
    12:00 +3°C° 0 mm 2 mps 689 mmHg 32%
    13:00 +3°C° 0 mm 2 mps 689 mmHg 32%
    14:00 +3°C° 0 mm 2 mps 689 mmHg 32%
    15:00 +4°C° 0 mm 2 mps 688 mmHg 32%
    16:00 +2°C° 0 mm 2 mps 688 mmHg 33%
    17:00 +1°C° 0 mm 2 mps 689 mmHg 35%
    18:00 -1°C° 0 mm 2 mps 689 mmHg 37%
    19:00 -1°C° 0 mm 2 mps 689 mmHg 38%
    20:00 -2°C° 0 mm 2 mps 689 mmHg 39%
    21:00 -2°C° 0 mm 2 mps 689 mmHg 40%
    22:00 -2°C° 0 mm 2 mps 689 mmHg 41%
    23:00 -3°C° 0 mm 2 mps 689 mmHg 41%

    Tomorrow, 22 January, Tuesday

    Time Temperature Precipitation Wind Pressure Humidity
    00:00 -3°C° 0 mm 2 mps 688 mmHg 42%
    01:00 -1°C° 0 mm 1 mps 688 mmHg 42%
    02:00 -1°C° 0 mm 1 mps 688 mmHg 43%
    03:00 -1°C° 0 mm 1 mps 688 mmHg 43%
    04:00 -1°C° 0 mm 1 mps 687 mmHg 43%
    05:00 -1°C° 0 mm 1 mps 687 mmHg 43%
    06:00 -1°C° 0 mm 1 mps 687 mmHg 43%
    07:00 -1°C° 0 mm 1 mps 687 mmHg 41%
    08:00 0°C° 0 mm 1 mps 687 mmHg 39%
    09:00 +1°C° 0 mm 1 mps 688 mmHg 38%
    10:00 +2°C° 0 mm 1 mps 687 mmHg 36%
    11:00 +3°C° 0 mm 1 mps 687 mmHg 35%
    12:00 +4°C° 0 mm 1 mps 686 mmHg 33%
    13:00 +5°C° 0 mm 1 mps 686 mmHg 34%
    14:00 +5°C° 0 mm 1 mps 686 mmHg 34%
    15:00 +5°C° 0 mm 1 mps 685 mmHg 35%
    16:00 +4°C° 0 mm 1 mps 686 mmHg 37%
    17:00 +3°C° 0 mm 1 mps 686 mmHg 39%
    18:00 +2°C° 0 mm 1 mps 686 mmHg 42%
    19:00 +1°C° 0 mm 1 mps 687 mmHg 42%
    20:00 +1°C° 0 mm 1 mps 687 mmHg 43%
    21:00 +1°C° 0 mm 1 mps 687 mmHg 44%
    22:00 0°C° 0 mm 1 mps 687 mmHg 45%
    23:00 0°C° 0 mm 1 mps 687 mmHg 46%

    Day after tomorrow, 23 January, Wednesday

    Time Temperature Precipitation Wind Pressure Humidity
    00:00 0°C° 0 mm 1 mps 687 mmHg 47%
    01:00 0°C° 0 mm 1 mps 687 mmHg 47%
    02:00 -1°C° 0 mm 1 mps 687 mmHg 47%
    03:00 -1°C° 0 mm 1 mps 687 mmHg 48%
    04:00 -1°C° 0 mm 1 mps 688 mmHg 48%
    05:00 -1°C° 0 mm 1 mps 688 mmHg 48%
    06:00 -1°C° 0 mm 1 mps 688 mmHg 48%
    07:00 0°C° 0 mm 1 mps 688 mmHg 46%
    08:00 +1°C° 0 mm 1 mps 689 mmHg 45%
    09:00 +1°C° 0 mm 1 mps 689 mmHg 43%
    10:00 +2°C° 0 mm 1 mps 689 mmHg 42%
    11:00 +2°C° 0 mm 2 mps 689 mmHg 41%
    12:00 +3°C° 0 mm 2 mps 688 mmHg 39%
    13:00 +4°C° 0 mm 2 mps 688 mmHg 40%
    14:00 +4°C° 0 mm 2 mps 688 mmHg 40%
    15:00 +4°C° 0 mm 2 mps 688 mmHg 40%
    16:00 +3°C° 0 mm 2 mps 688 mmHg 42%
    17:00 +2°C° 0 mm 2 mps 689 mmHg 44%
    18:00 +1°C° 0 mm 2 mps 689 mmHg 46%
    19:00 +1°C° 0 mm 2 mps 689 mmHg 47%
    20:00 -1°C° 0 mm 2 mps 690 mmHg 48%
    21:00 -1°C° 0 mm 2 mps 690 mmHg 49%
    22:00 -1°C° 0 mm 2 mps 690 mmHg 51%
    23:00 -2°C° 0 mm 2 mps 690 mmHg 52%

    24 January, Thursday

    Time Temperature Precipitation Wind Pressure Humidity
    00:00 0°C° 0 mm 1 mps 691 mmHg 53%
    01:00 0°C° 0 mm 1 mps 691 mmHg 54%
    02:00 0°C° 0 mm 1 mps 690 mmHg 55%
    03:00 0°C° 0 mm 1 mps 690 mmHg 55%
    04:00 0°C° 0 mm 1 mps 690 mmHg 55%
    05:00 -3°C° 0 mm 2 mps 690 mmHg 55%
    06:00 -3°C° 0 mm 2 mps 690 mmHg 54%
    07:00 -2°C° 0 mm 2 mps 690 mmHg 52%
    08:00 -1°C° 0 mm 2 mps 691 mmHg 49%
    09:00 +1°C° 0 mm 2 mps 691 mmHg 46%
    10:00 +2°C° 0 mm 2 mps 690 mmHg 44%
    11:00 +3°C° 0 mm 2 mps 690 mmHg 43%
    12:00 +5°C° 0 mm 2 mps 690 mmHg 41%
    13:00 +4°C° 0 mm 3 mps 689 mmHg 41%
    14:00 +4°C° 0 mm 3 mps 689 mmHg 41%
    15:00 +5°C° 0 mm 3 mps 688 mmHg 41%
    16:00 +4°C° 0 mm 3 mps 689 mmHg 43%
    17:00 +2°C° 0 mm 3 mps 689 mmHg 45%
    18:00 +1°C° 0 mm 3 mps 689 mmHg 47%
    19:00 +2°C° 0 mm 2 mps 689 mmHg 48%
    20:00 +2°C° 0 mm 2 mps 689 mmHg 49%
    21:00 +1°C° 0 mm 2 mps 689 mmHg 50%
    22:00 +1°C° 0 mm 2 mps 689 mmHg 51%
    23:00 +1°C° 0 mm 2 mps 689 mmHg 52%

    25 January, Friday

    Time Temperature Precipitation Wind Pressure Humidity
    00:00 +1°C° 0 mm 2 mps 688 mmHg 53%
    01:00 +1°C° 0 mm 2 mps 688 mmHg 53%
    02:00 +1°C° 0 mm 2 mps 688 mmHg 53%
    03:00 +1°C° 0 mm 2 mps 687 mmHg 54%
    04:00 +1°C° 0.1 mm 2 mps 687 mmHg 56%
    05:00 +1°C° 0.1 mm 2 mps 687 mmHg 59%
    06:00 0°C° 0.1 mm 3 mps 687 mmHg 62%
    07:00 +2°C° 0.1 mm 2 mps 687 mmHg 63%
    08:00 +2°C° 0.1 mm 2 mps 687 mmHg 63%
    09:00 +2°C° 0.1 mm 2 mps 687 mmHg 64%
    10:00 +3°C° 0.1 mm 2 mps 687 mmHg 62%
    11:00 +3°C° 0.1 mm 3 mps 686 mmHg 61%
    12:00 +4°C° 0.1 mm 3 mps 686 mmHg 59%
    13:00 +5°C° 0 mm 3 mps 686 mmHg 57%
    14:00 +5°C° 0 mm 3 mps 685 mmHg 55%
    15:00 +6°C° 0 mm 4 mps 685 mmHg 53%
    16:00 +5°C° 0 mm 3 mps 685 mmHg 55%
    17:00 +4°C° 0 mm 3 mps 685 mmHg 57%
    18:00 +3°C° 0 mm 3 mps 686 mmHg 59%
    19:00 +4°C° 0 mm 2 mps 686 mmHg 59%
    20:00 +3°C° 0 mm 2 mps 686 mmHg 60%
    21:00 +3°C° 0 mm 2 mps 686 mmHg 60%
    22:00 +3°C° 0 mm 2 mps 686 mmHg 60%
    23:00 +2°C° 0 mm 2 mps 686 mmHg 60%

    26 January, Saturday

    Time Temperature Precipitation Wind Pressure Humidity
    00:00 +2°C° 0 mm 2 mps 686 mmHg 60%
    01:00 +2°C° 0 mm 2 mps 686 mmHg 60%
    02:00 +2°C° 0 mm 2 mps 686 mmHg 61%
    03:00 +2°C° 0 mm 2 mps 685 mmHg 61%
    04:00 +2°C° 0 mm 2 mps 685 mmHg 61%
    05:00 +1°C° 0 mm 2 mps 685 mmHg 61%
    06:00 +1°C° 0 mm 2 mps 685 mmHg 60%
    07:00 +2°C° 0 mm 2 mps 686 mmHg 58%
    08:00 +3°C° 0 mm 2 mps 686 mmHg 55%
    09:00 +4°C° 0 mm 2 mps 686 mmHg 52%
    10:00 +5°C° 0 mm 2 mps 686 mmHg 50%
    11:00 +6°C° 0 mm 2 mps 685 mmHg 48%
    12:00 +7°C° 0 mm 3 mps 685 mmHg 45%
    13:00 +7°C° 0 mm 3 mps 684 mmHg 44%
    14:00 +8°C° 0 mm 3 mps 684 mmHg 43%
    15:00 +8°C° 0 mm 3 mps 684 mmHg 42%
    16:00 +7°C° 0 mm 3 mps 684 mmHg 44%
    17:00 +5°C° 0 mm 3 mps 684 mmHg 47%
    18:00 +4°C° 0 mm 3 mps 684 mmHg 49%
    19:00 +4°C° 0 mm 2 mps 685 mmHg 50%
    20:00 +4°C° 0 mm 2 mps 685 mmHg 52%
    21:00 +3°C° 0 mm 2 mps 685 mmHg 53%
    22:00 +3°C° 0 mm 2 mps 685 mmHg 54%
    23:00 +3°C° 0 mm 2 mps 685 mmHg 55%
    Show more